sat.trackr.live / text

‹ back to catalog

STARLINK-6359

NORAD 57346 · 2023-099U

PAYLOAD ACTIVE UNKNOWN

§ Identity

Operator
Country
US
Launch date
2023-07-16
Launch site
AFETR
Launch vehicle
Mass (kg)
RCS (m²)

Purposes: comms

External: N2YO · Heavens-Above · Gunter

§ Orbital elements

Epoch: 2026-05-25T03:12:00.497376Z

Period
94.27 min
Inclination
43.0004°
Eccentricity
0.0001263
Mean motion
15.27575447 rev/d
Perigee alt
482.2 km
Apogee alt
483.9 km
Semi-major
6,861.2 km
B*
3.0281e-5
RAAN
177.6096°
Arg perigee
281.4154°
Mean anomaly
78.6556°
Rev number
15,780

§ Raw data

STARLINK-63591 57346U 23099U   26145.13333909  .00000571  00000+0  30281-4 0  99972 57346  43.0004 177.6096 0001263 281.4154  78.6556 15.27575447157806

JSON: /api/v1/satellites/57346 · /tle

For live sub-satellite position, see the globe view (requires WebGL).

§ Visibility from observer

Set your observer location to see the next 7 days of passes ≥ 10°. The values pass through the URL so the page stays shareable.

No JS? Fill the form by hand. The geolocation button needs JavaScript.